User: anonymous   Login
Location: San Francisco
(37.7750°N, 122.4180°W)
Time: 02:35:22
(UTC-08:00)
Language:

GP-B - Orbit

View from above orbital plane
View from above orbital plane
View from above satellite
View from above satellite

Ground track
Ground track

The orbit data is extracted from the following two-line orbital elements,

1 28230U 04014A   14351.43583147  .00001488  00000-0  20504-3 0  2430
2 28230 089.8816 137.4144 0002843 121.8003 238.3497 14.77839426574253
Epoch (UTC): 17 December 2014 10:27:35
Eccentricity: 0.0002843
inclination: 89.8816°
perigee height: 634 km
apogee height: 638 km
right ascension of ascending node: 137.4144°
argument of perigee: 121.8003°
revolutions per day: 14.77839426
mean anomaly at epoch: 238.3497°
orbit number at epoch: 57425

The dashed part of the orbit path shows where the satellite is in the earth's shadow,  

DLR